owner,sensor,date,latitude,longitude,sea_surface_height_above_sea_level,qcFlag 
COMPS,ioos:station:USF.COMPS:SHP:1,2014-04-01T00:00:00Z,30.0600,-84.2910,-0.394,1111122 
COMPS,ioos:station:USF.COMPS:SHP:1,2014-04-01T00:06:00Z,30.0600,-84.2910,-0.419,1111122 
COMPS,ioos:station:USF.COMPS:SHP:1,2014-04-01T00:12:00Z,30.0600,-84.2910,-0.443,1111122 
COMPS,ioos:station:USF.COMPS:SHP:1,2014-04-01T00:18:00Z,30.0600,-84.2910,-0.465,1111122 
COMPS,ioos:station:USF.COMPS:SHP:1,2014-04-01T00:24:00Z,30.0600,-84.2910,-0.487,1111122 
COMPS,ioos:station:USF.COMPS:SHP:1,2014-04-01T00:30:00Z,30.0600,-84.2910,-0.508,1111122 
COMPS,ioos:station:USF.COMPS:SHP:1,2014-04-01T00:36:00Z,30.0600,-84.2910,-0.528,1111122 
COMPS,ioos:station:USF.COMPS:SHP:1,2014-04-01T00:42:00Z,30.0600,-84.2910,-0.547,1111122 
COMPS,ioos:station:USF.COMPS:SHP:1,2014-04-01T00:48:00Z,30.0600,-84.2910,-0.567,1111122 
COMPS,ioos:station:USF.COMPS:SHP:1,2014-04-01T00:54:00Z,30.0600,-84.2910,-0.586,1111122 
COMPS,ioos:station:USF.COMPS:SHP:1,2014-04-01T01:00:00Z,30.0600,-84.2910,-0.604,1111122 
COMPS,ioos:station:USF.COMPS:SHP:1,2014-04-01T01:06:00Z,30.0600,-84.2910,-0.62,1111122 
COMPS,ioos:station:USF.COMPS:SHP:1,2014-04-01T01:12:00Z,30.0600,-84.2910,-0.635,1111122 
COMPS,ioos:station:USF.COMPS:SHP:1,2014-04-01T01:18:00Z,30.0600,-84.2910,-0.641,1111122 
COMPS,ioos:station:USF.COMPS:SHP:1,2014-04-01T01:24:00Z,30.0600,-84.2910,-0.628,1111122 
COMPS,ioos:station:USF.COMPS:SHP:1,2014-04-01T01:30:00Z,30.0600,-84.2910,-0.628,1111122 
COMPS,ioos:station:USF.COMPS:SHP:1,2014-04-01T01:36:00Z,30.0600,-84.2910,-0.628,1111122 
COMPS,ioos:station:USF.COMPS:SHP:1,2014-04-01T01:42:00Z,30.0600,-84.2910,-0.628,1111122 
COMPS,ioos:station:USF.COMPS:SHP:1,2014-04-01T01:48:00Z,30.0600,-84.2910,-0.628,1111122 
COMPS,ioos:station:USF.COMPS:SHP:1,2014-04-01T01:54:00Z,30.0600,-84.2910,-0.629,1111122 
COMPS,ioos:station:USF.COMPS:SHP:1,2014-04-01T02:00:00Z,30.0600,-84.2910,-0.629,1111122 
COMPS,ioos:station:USF.COMPS:SHP:1,2014-04-01T02:06:00Z,30.0600,-84.2910,-0.628,1111122 
COMPS,ioos:station:USF.COMPS:SHP:1,2014-04-01T02:12:00Z,30.0600,-84.2910,-0.628,1111122 
COMPS,ioos:station:USF.COMPS:SHP:1,2014-04-01T02:18:00Z,30.0600,-84.2910,-0.629,1111122 
COMPS,ioos:station:USF.COMPS:SHP:1,2014-04-01T02:24:00Z,30.0600,-84.2910,-0.629,1111122 
COMPS,ioos:station:USF.COMPS:SHP:1,2014-04-01T02:30:00Z,30.0600,-84.2910,-0.629,1111122 
COMPS,ioos:station:USF.COMPS:SHP:1,2014-04-01T02:36:00Z,30.0600,-84.2910,-0.629,1111122 
COMPS,ioos:station:USF.COMPS:SHP:1,2014-04-01T02:42:00Z,30.0600,-84.2910,-0.629,1111122 
COMPS,ioos:station:USF.COMPS:SHP:1,2014-04-01T02:48:00Z,30.0600,-84.2910,-0.629,1111122 
COMPS,ioos:station:USF.COMPS:SHP:1,2014-04-01T02:54:00Z,30.0600,-84.2910,-0.629,1111122 
COMPS,ioos:station:USF.COMPS:SHP:1,2014-04-01T03:00:00Z,30.0600,-84.2910,-0.629,1111122 
COMPS,ioos:station:USF.COMPS:SHP:1,2014-04-01T03:06:00Z,30.0600,-84.2910,-0.629,1111122 
COMPS,ioos:station:USF.COMPS:SHP:1,2014-04-01T03:12:00Z,30.0600,-84.2910,-0.629,1111122 
COMPS,ioos:station:USF.COMPS:SHP:1,2014-04-01T03:18:00Z,30.0600,-84.2910,-0.63,1111122 
COMPS,ioos:station:USF.COMPS:SHP:1,2014-04-01T03:24:00Z,30.0600,-84.2910,-0.645,1111122 
COMPS,ioos:station:USF.COMPS:SHP:1,2014-04-01T03:30:00Z,30.0600,-84.2910,-0.628,1111122 
COMPS,ioos:station:USF.COMPS:SHP:1,2014-04-01T03:36:00Z,30.0600,-84.2910,-0.609,1111122 
COMPS,ioos:station:USF.COMPS:SHP:1,2014-04-01T03:42:00Z,30.0600,-84.2910,-0.593,1111122 
COMPS,ioos:station:USF.COMPS:SHP:1,2014-04-01T03:48:00Z,30.0600,-84.2910,-0.574,1111122 
COMPS,ioos:station:USF.COMPS:SHP:1,2014-04-01T03:54:00Z,30.0600,-84.2910,-0.552,1111122 
COMPS,ioos:station:USF.COMPS:SHP:1,2014-04-01T04:00:00Z,30.0600,-84.2910,-0.531,1111122 
COMPS,ioos:station:USF.COMPS:SHP:1,2014-04-01T04:06:00Z,30.0600,-84.2910,-0.512,1111122 
COMPS,ioos:station:USF.COMPS:SHP:1,2014-04-01T04:12:00Z,30.0600,-84.2910,-0.489,1111122 
COMPS,ioos:station:USF.COMPS:SHP:1,2014-04-01T04:18:00Z,30.0600,-84.2910,-0.463,1111122 
COMPS,ioos:station:USF.COMPS:SHP:1,2014-04-01T04:24:00Z,30.0600,-84.2910,-0.434,1111122 
COMPS,ioos:station:USF.COMPS:SHP:1,2014-04-01T04:30:00Z,30.0600,-84.2910,-0.405,1111122 
COMPS,ioos:station:USF.COMPS:SHP:1,2014-04-01T04:36:00Z,30.0600,-84.2910,-0.374,1111122 
COMPS,ioos:station:USF.COMPS:SHP:1,2014-04-01T04:42:00Z,30.0600,-84.2910,-0.34,1111122 
COMPS,ioos:station:USF.COMPS:SHP:1,2014-04-01T04:48:00Z,30.0600,-84.2910,-0.307,1111122 
COMPS,ioos:station:USF.COMPS:SHP:1,2014-04-01T04:54:00Z,30.0600,-84.2910,-0.275,1111122 
COMPS,ioos:station:USF.COMPS:SHP:1,2014-04-01T05:00:00Z,30.0600,-84.2910,-0.24,1111122 
COMPS,ioos:station:USF.COMPS:SHP:1,2014-04-01T05:06:00Z,30.0600,-84.2910,-0.205,1111122 
COMPS,ioos:station:USF.COMPS:SHP:1,2014-04-01T05:12:00Z,30.0600,-84.2910,-0.169,1111122 
COMPS,ioos:station:USF.COMPS:SHP:1,2014-04-01T05:18:00Z,30.0600,-84.2910,-0.135,1111122 
COMPS,ioos:station:USF.COMPS:SHP:1,2014-04-01T05:24:00Z,30.0600,-84.2910,-0.102,1111122 
COMPS,ioos:station:USF.COMPS:SHP:1,2014-04-01T05:30:00Z,30.0600,-84.2910,-0.067,1111122 
COMPS,ioos:station:USF.COMPS:SHP:1,2014-04-01T05:36:00Z,30.0600,-84.2910,-0.031,1111122 
COMPS,ioos:station:USF.COMPS:SHP:1,2014-04-01T05:42:00Z,30.0600,-84.2910,0.006,1111122 
COMPS,ioos:station:USF.COMPS:SHP:1,2014-04-01T05:48:00Z,30.0600,-84.2910,0.042,1111122 
COMPS,ioos:station:USF.COMPS:SHP:1,2014-04-01T05:54:00Z,30.0600,-84.2910,0.073,1111122 
COMPS,ioos:station:USF.COMPS:SHP:1,2014-04-01T06:00:00Z,30.0600,-84.2910,0.105,1111122 
COMPS,ioos:station:USF.COMPS:SHP:1,2014-04-01T06:06:00Z,30.0600,-84.2910,0.139,1111122 
COMPS,ioos:station:USF.COMPS:SHP:1,2014-04-01T06:12:00Z,30.0600,-84.2910,0.168,1111122 
COMPS,ioos:station:USF.COMPS:SHP:1,2014-04-01T06:18:00Z,30.0600,-84.2910,0.195,1111122 
COMPS,ioos:station:USF.COMPS:SHP:1,2014-04-01T06:24:00Z,30.0600,-84.2910,0.227,1111122 
COMPS,ioos:station:USF.COMPS:SHP:1,2014-04-01T06:30:00Z,30.0600,-84.2910,0.26,1111122 
COMPS,ioos:station:USF.COMPS:SHP:1,2014-04-01T06:36:00Z,30.0600,-84.2910,0.289,1111122 
COMPS,ioos:station:USF.COMPS:SHP:1,2014-04-01T06:42:00Z,30.0600,-84.2910,0.314,1111122 
COMPS,ioos:station:USF.COMPS:SHP:1,2014-04-01T06:48:00Z,30.0600,-84.2910,0.341,1111122 
COMPS,ioos:station:USF.COMPS:SHP:1,2014-04-01T06:54:00Z,30.0600,-84.2910,0.367,1111122 
COMPS,ioos:station:USF.COMPS:SHP:1,2014-04-01T07:00:00Z,30.0600,-84.2910,0.386,1111122 
COMPS,ioos:station:USF.COMPS:SHP:1,2014-04-01T07:06:00Z,30.0600,-84.2910,0.405,1111122 
COMPS,ioos:station:USF.COMPS:SHP:1,2014-04-01T07:12:00Z,30.0600,-84.2910,0.426,1111122 
COMPS,ioos:station:USF.COMPS:SHP:1,2014-04-01T07:18:00Z,30.0600,-84.2910,0.449,1111122 
COMPS,ioos:station:USF.COMPS:SHP:1,2014-04-01T07:24:00Z,30.0600,-84.2910,0.467,1111122 
COMPS,ioos:station:USF.COMPS:SHP:1,2014-04-01T07:30:00Z,30.0600,-84.2910,0.486,1111122 
COMPS,ioos:station:USF.COMPS:SHP:1,2014-04-01T07:36:00Z,30.0600,-84.2910,0.504,1111122 
COMPS,ioos:station:USF.COMPS:SHP:1,2014-04-01T07:42:00Z,30.0600,-84.2910,0.513,1111122 
COMPS,ioos:station:USF.COMPS:SHP:1,2014-04-01T07:48:00Z,30.0600,-84.2910,0.527,1111122 
COMPS,ioos:station:USF.COMPS:SHP:1,2014-04-01T07:54:00Z,30.0600,-84.2910,0.539,1111122 
COMPS,ioos:station:USF.COMPS:SHP:1,2014-04-01T08:00:00Z,30.0600,-84.2910,0.549,1111122 
COMPS,ioos:station:USF.COMPS:SHP:1,2014-04-01T08:06:00Z,30.0600,-84.2910,0.554,1111122 
COMPS,ioos:station:USF.COMPS:SHP:1,2014-04-01T08:12:00Z,30.0600,-84.2910,0.559,1111122 
COMPS,ioos:station:USF.COMPS:SHP:1,2014-04-01T08:18:00Z,30.0600,-84.2910,0.565,1111122 
COMPS,ioos:station:USF.COMPS:SHP:1,2014-04-01T08:24:00Z,30.0600,-84.2910,0.571,1111122 
COMPS,ioos:station:USF.COMPS:SHP:1,2014-04-01T08:30:00Z,30.0600,-84.2910,0.574,1111122 
COMPS,ioos:station:USF.COMPS:SHP:1,2014-04-01T08:36:00Z,30.0600,-84.2910,0.576,1111122 
COMPS,ioos:station:USF.COMPS:SHP:1,2014-04-01T08:42:00Z,30.0600,-84.2910,0.574,1111122 
COMPS,ioos:station:USF.COMPS:SHP:1,2014-04-01T08:48:00Z,30.0600,-84.2910,0.568,1111122 
COMPS,ioos:station:USF.COMPS:SHP:1,2014-04-01T08:54:00Z,30.0600,-84.2910,0.563,1111122 
COMPS,ioos:station:USF.COMPS:SHP:1,2014-04-01T09:00:00Z,30.0600,-84.2910,0.554,1111122 
COMPS,ioos:station:USF.COMPS:SHP:1,2014-04-01T09:06:00Z,30.0600,-84.2910,0.549,1111122 
COMPS,ioos:station:USF.COMPS:SHP:1,2014-04-01T09:12:00Z,30.0600,-84.2910,0.536,1111122 
COMPS,ioos:station:USF.COMPS:SHP:1,2014-04-01T09:18:00Z,30.0600,-84.2910,0.519,1111122 
COMPS,ioos:station:USF.COMPS:SHP:1,2014-04-01T09:24:00Z,30.0600,-84.2910,0.511,1111122 
COMPS,ioos:station:USF.COMPS:SHP:1,2014-04-01T09:30:00Z,30.0600,-84.2910,0.503,1111122 
COMPS,ioos:station:USF.COMPS:SHP:1,2014-04-01T09:36:00Z,30.0600,-84.2910,0.482,1111122 
COMPS,ioos:station:USF.COMPS:SHP:1,2014-04-01T09:42:00Z,30.0600,-84.2910,0.458,1111122 
COMPS,ioos:station:USF.COMPS:SHP:1,2014-04-01T09:48:00Z,30.0600,-84.2910,0.437,1111122 
COMPS,ioos:station:USF.COMPS:SHP:1,2014-04-01T09:54:00Z,30.0600,-84.2910,0.413,1111122 
COMPS,ioos:station:USF.COMPS:SHP:1,2014-04-01T10:00:00Z,30.0600,-84.2910,0.393,1111122 
COMPS,ioos:station:USF.COMPS:SHP:1,2014-04-01T10:06:00Z,30.0600,-84.2910,0.373,1111122 
COMPS,ioos:station:USF.COMPS:SHP:1,2014-04-01T10:12:00Z,30.0600,-84.2910,0.349,1111122 
COMPS,ioos:station:USF.COMPS:SHP:1,2014-04-01T10:18:00Z,30.0600,-84.2910,0.319,1111122 
COMPS,ioos:station:USF.COMPS:SHP:1,2014-04-01T10:24:00Z,30.0600,-84.2910,0.291,1111122 
COMPS,ioos:station:USF.COMPS:SHP:1,2014-04-01T10:30:00Z,30.0600,-84.2910,0.266,1111122 
COMPS,ioos:station:USF.COMPS:SHP:1,2014-04-01T10:36:00Z,30.0600,-84.2910,0.239,1111122 
COMPS,ioos:station:USF.COMPS:SHP:1,2014-04-01T10:42:00Z,30.0600,-84.2910,0.209,1111122 
COMPS,ioos:station:USF.COMPS:SHP:1,2014-04-01T10:48:00Z,30.0600,-84.2910,0.183,1111122 
COMPS,ioos:station:USF.COMPS:SHP:1,2014-04-01T10:54:00Z,30.0600,-84.2910,0.158,1111122 
COMPS,ioos:station:USF.COMPS:SHP:1,2014-04-01T11:00:00Z,30.0600,-84.2910,0.131,1111122 
COMPS,ioos:station:USF.COMPS:SHP:1,2014-04-01T11:06:00Z,30.0600,-84.2910,0.106,1111122 
COMPS,ioos:station:USF.COMPS:SHP:1,2014-04-01T11:12:00Z,30.0600,-84.2910,0.08,1111122 
COMPS,ioos:station:USF.COMPS:SHP:1,2014-04-01T11:18:00Z,30.0600,-84.2910,0.052,1111122 
COMPS,ioos:station:USF.COMPS:SHP:1,2014-04-01T11:24:00Z,30.0600,-84.2910,0.02,1111122 
COMPS,ioos:station:USF.COMPS:SHP:1,2014-04-01T11:30:00Z,30.0600,-84.2910,-0.01,1111122 
COMPS,ioos:station:USF.COMPS:SHP:1,2014-04-01T11:36:00Z,30.0600,-84.2910,-0.038,1111122 
COMPS,ioos:station:USF.COMPS:SHP:1,2014-04-01T11:42:00Z,30.0600,-84.2910,-0.067,1111122 
COMPS,ioos:station:USF.COMPS:SHP:1,2014-04-01T11:48:00Z,30.0600,-84.2910,-0.092,1111122 
COMPS,ioos:station:USF.COMPS:SHP:1,2014-04-01T11:54:00Z,30.0600,-84.2910,-0.114,1111122 
COMPS,ioos:station:USF.COMPS:SHP:1,2014-04-01T12:00:00Z,30.0600,-84.2910,-0.138,1111122 
COMPS,ioos:station:USF.COMPS:SHP:1,2014-04-01T12:06:00Z,30.0600,-84.2910,-0.165,1111122 
COMPS,ioos:station:USF.COMPS:SHP:1,2014-04-01T12:12:00Z,30.0600,-84.2910,-0.189,1111122 
COMPS,ioos:station:USF.COMPS:SHP:1,2014-04-01T12:18:00Z,30.0600,-84.2910,-0.208,1111122 
COMPS,ioos:station:USF.COMPS:SHP:1,2014-04-01T12:24:00Z,30.0600,-84.2910,-0.229,1111122 
COMPS,ioos:station:USF.COMPS:SHP:1,2014-04-01T12:30:00Z,30.0600,-84.2910,-0.248,1111122 
COMPS,ioos:station:USF.COMPS:SHP:1,2014-04-01T12:36:00Z,30.0600,-84.2910,-0.266,1111122 
COMPS,ioos:station:USF.COMPS:SHP:1,2014-04-01T12:42:00Z,30.0600,-84.2910,-0.283,1111122 
COMPS,ioos:station:USF.COMPS:SHP:1,2014-04-01T12:48:00Z,30.0600,-84.2910,-0.303,1111122 
COMPS,ioos:station:USF.COMPS:SHP:1,2014-04-01T12:54:00Z,30.0600,-84.2910,-0.319,1111122 
COMPS,ioos:station:USF.COMPS:SHP:1,2014-04-01T13:00:00Z,30.0600,-84.2910,-0.33,1111122 
COMPS,ioos:station:USF.COMPS:SHP:1,2014-04-01T13:06:00Z,30.0600,-84.2910,-0.341,1111122 
COMPS,ioos:station:USF.COMPS:SHP:1,2014-04-01T13:12:00Z,30.0600,-84.2910,-0.354,1111122 
COMPS,ioos:station:USF.COMPS:SHP:1,2014-04-01T13:18:00Z,30.0600,-84.2910,-0.364,1111122 
COMPS,ioos:station:USF.COMPS:SHP:1,2014-04-01T13:24:00Z,30.0600,-84.2910,-0.373,1111122 
COMPS,ioos:station:USF.COMPS:SHP:1,2014-04-01T13:30:00Z,30.0600,-84.2910,-0.381,1111122 
COMPS,ioos:station:USF.COMPS:SHP:1,2014-04-01T13:36:00Z,30.0600,-84.2910,-0.387,1111122 
COMPS,ioos:station:USF.COMPS:SHP:1,2014-04-01T13:42:00Z,30.0600,-84.2910,-0.388,1111122 
COMPS,ioos:station:USF.COMPS:SHP:1,2014-04-01T13:48:00Z,30.0600,-84.2910,-0.391,1111122 
COMPS,ioos:station:USF.COMPS:SHP:1,2014-04-01T13:54:00Z,30.0600,-84.2910,-0.398,1111122 
COMPS,ioos:station:USF.COMPS:SHP:1,2014-04-01T14:00:00Z,30.0600,-84.2910,-0.401,1111122 
COMPS,ioos:station:USF.COMPS:SHP:1,2014-04-01T14:06:00Z,30.0600,-84.2910,-0.396,1111122 
COMPS,ioos:station:USF.COMPS:SHP:1,2014-04-01T14:12:00Z,30.0600,-84.2910,-0.386,1111122 
COMPS,ioos:station:USF.COMPS:SHP:1,2014-04-01T14:18:00Z,30.0600,-84.2910,-0.377,1111122 
COMPS,ioos:station:USF.COMPS:SHP:1,2014-04-01T14:24:00Z,30.0600,-84.2910,-0.373,1111122 
COMPS,ioos:station:USF.COMPS:SHP:1,2014-04-01T14:30:00Z,30.0600,-84.2910,-0.371,1111122 
COMPS,ioos:station:USF.COMPS:SHP:1,2014-04-01T14:36:00Z,30.0600,-84.2910,-0.366,1111122 
COMPS,ioos:station:USF.COMPS:SHP:1,2014-04-01T14:42:00Z,30.0600,-84.2910,-0.358,1111122 
COMPS,ioos:station:USF.COMPS:SHP:1,2014-04-01T14:48:00Z,30.0600,-84.2910,-0.349,1111122 
COMPS,ioos:station:USF.COMPS:SHP:1,2014-04-01T14:54:00Z,30.0600,-84.2910,-0.339,1111122 
COMPS,ioos:station:USF.COMPS:SHP:1,2014-04-01T15:00:00Z,30.0600,-84.2910,-0.326,1111122 
COMPS,ioos:station:USF.COMPS:SHP:1,2014-04-01T15:06:00Z,30.0600,-84.2910,-0.313,1111122 
COMPS,ioos:station:USF.COMPS:SHP:1,2014-04-01T15:12:00Z,30.0600,-84.2910,-0.302,1111122 
COMPS,ioos:station:USF.COMPS:SHP:1,2014-04-01T15:18:00Z,30.0600,-84.2910,-0.289,1111122 
COMPS,ioos:station:USF.COMPS:SHP:1,2014-04-01T15:24:00Z,30.0600,-84.2910,-0.275,1111122 
COMPS,ioos:station:USF.COMPS:SHP:1,2014-04-01T15:30:00Z,30.0600,-84.2910,-0.262,1111122 
COMPS,ioos:station:USF.COMPS:SHP:1,2014-04-01T15:36:00Z,30.0600,-84.2910,-0.247,1111122 
COMPS,ioos:station:USF.COMPS:SHP:1,2014-04-01T15:42:00Z,30.0600,-84.2910,-0.229,1111122 
COMPS,ioos:station:USF.COMPS:SHP:1,2014-04-01T15:48:00Z,30.0600,-84.2910,-0.208,1111122 
COMPS,ioos:station:USF.COMPS:SHP:1,2014-04-01T15:54:00Z,30.0600,-84.2910,-0.182,1111122 
COMPS,ioos:station:USF.COMPS:SHP:1,2014-04-01T16:00:00Z,30.0600,-84.2910,-0.159,1111122 
COMPS,ioos:station:USF.COMPS:SHP:1,2014-04-01T16:06:00Z,30.0600,-84.2910,-0.138,1111122 
COMPS,ioos:station:USF.COMPS:SHP:1,2014-04-01T16:12:00Z,30.0600,-84.2910,-0.114,1111122 
COMPS,ioos:station:USF.COMPS:SHP:1,2014-04-01T16:18:00Z,30.0600,-84.2910,-0.092,1111122 
COMPS,ioos:station:USF.COMPS:SHP:1,2014-04-01T16:24:00Z,30.0600,-84.2910,-0.072,1111122 
COMPS,ioos:station:USF.COMPS:SHP:1,2014-04-01T16:30:00Z,30.0600,-84.2910,-0.049,1111122 
COMPS,ioos:station:USF.COMPS:SHP:1,2014-04-01T16:36:00Z,30.0600,-84.2910,-0.025,1111122 
COMPS,ioos:station:USF.COMPS:SHP:1,2014-04-01T16:42:00Z,30.0600,-84.2910,-0.001,1111122 
COMPS,ioos:station:USF.COMPS:SHP:1,2014-04-01T16:48:00Z,30.0600,-84.2910,0.024,1111122 
COMPS,ioos:station:USF.COMPS:SHP:1,2014-04-01T16:54:00Z,30.0600,-84.2910,0.052,1111122 
COMPS,ioos:station:USF.COMPS:SHP:1,2014-04-01T17:00:00Z,30.0600,-84.2910,0.077,1111122 
COMPS,ioos:station:USF.COMPS:SHP:1,2014-04-01T17:06:00Z,30.0600,-84.2910,0.108,1111122 
COMPS,ioos:station:USF.COMPS:SHP:1,2014-04-01T17:12:00Z,30.0600,-84.2910,0.14,1111122 
COMPS,ioos:station:USF.COMPS:SHP:1,2014-04-01T17:18:00Z,30.0600,-84.2910,0.164,1111122 
COMPS,ioos:station:USF.COMPS:SHP:1,2014-04-01T17:24:00Z,30.0600,-84.2910,0.195,1111122 
COMPS,ioos:station:USF.COMPS:SHP:1,2014-04-01T17:30:00Z,30.0600,-84.2910,0.228,1111122 
COMPS,ioos:station:USF.COMPS:SHP:1,2014-04-01T17:36:00Z,30.0600,-84.2910,0.253,1111122 
COMPS,ioos:station:USF.COMPS:SHP:1,2014-04-01T17:42:00Z,30.0600,-84.2910,0.276,1111122 
COMPS,ioos:station:USF.COMPS:SHP:1,2014-04-01T17:48:00Z,30.0600,-84.2910,0.304,1111122 
COMPS,ioos:station:USF.COMPS:SHP:1,2014-04-01T17:54:00Z,30.0600,-84.2910,0.336,1111122 
COMPS,ioos:station:USF.COMPS:SHP:1,2014-04-01T18:00:00Z,30.0600,-84.2910,0.361,1111122 
COMPS,ioos:station:USF.COMPS:SHP:1,2014-04-01T18:06:00Z,30.0600,-84.2910,0.378,1111122 
COMPS,ioos:station:USF.COMPS:SHP:1,2014-04-01T18:12:00Z,30.0600,-84.2910,0.4,1111122 
COMPS,ioos:station:USF.COMPS:SHP:1,2014-04-01T18:18:00Z,30.0600,-84.2910,0.426,1111122 
COMPS,ioos:station:USF.COMPS:SHP:1,2014-04-01T18:24:00Z,30.0600,-84.2910,0.454,1111122 
COMPS,ioos:station:USF.COMPS:SHP:1,2014-04-01T18:30:00Z,30.0600,-84.2910,0.482,1111122 
COMPS,ioos:station:USF.COMPS:SHP:1,2014-04-01T18:36:00Z,30.0600,-84.2910,0.509,1111122 
COMPS,ioos:station:USF.COMPS:SHP:1,2014-04-01T18:42:00Z,30.0600,-84.2910,0.53,1111122 
COMPS,ioos:station:USF.COMPS:SHP:1,2014-04-01T18:48:00Z,30.0600,-84.2910,0.545,1111122 
COMPS,ioos:station:USF.COMPS:SHP:1,2014-04-01T18:54:00Z,30.0600,-84.2910,0.564,1111122 
COMPS,ioos:station:USF.COMPS:SHP:1,2014-04-01T19:00:00Z,30.0600,-84.2910,0.585,1111122 
COMPS,ioos:station:USF.COMPS:SHP:1,2014-04-01T19:06:00Z,30.0600,-84.2910,0.603,1111122 
COMPS,ioos:station:USF.COMPS:SHP:1,2014-04-01T19:12:00Z,30.0600,-84.2910,0.625,1111122 
COMPS,ioos:station:USF.COMPS:SHP:1,2014-04-01T19:18:00Z,30.0600,-84.2910,0.636,1111122 
COMPS,ioos:station:USF.COMPS:SHP:1,2014-04-01T19:24:00Z,30.0600,-84.2910,0.653,1111122 
COMPS,ioos:station:USF.COMPS:SHP:1,2014-04-01T19:30:00Z,30.0600,-84.2910,0.671,1111122 
COMPS,ioos:station:USF.COMPS:SHP:1,2014-04-01T19:36:00Z,30.0600,-84.2910,0.686,1111122 
COMPS,ioos:station:USF.COMPS:SHP:1,2014-04-01T19:42:00Z,30.0600,-84.2910,0.689,1111122 
COMPS,ioos:station:USF.COMPS:SHP:1,2014-04-01T19:48:00Z,30.0600,-84.2910,0.698,1111122 
COMPS,ioos:station:USF.COMPS:SHP:1,2014-04-01T19:54:00Z,30.0600,-84.2910,0.701,1111122 
COMPS,ioos:station:USF.COMPS:SHP:1,2014-04-01T20:00:00Z,30.0600,-84.2910,0.705,1111122 
COMPS,ioos:station:USF.COMPS:SHP:1,2014-04-01T20:06:00Z,30.0600,-84.2910,0.713,1111122 
COMPS,ioos:station:USF.COMPS:SHP:1,2014-04-01T20:12:00Z,30.0600,-84.2910,0.717,1111122 
COMPS,ioos:station:USF.COMPS:SHP:1,2014-04-01T20:18:00Z,30.0600,-84.2910,0.714,1111122 
COMPS,ioos:station:USF.COMPS:SHP:1,2014-04-01T20:24:00Z,30.0600,-84.2910,0.709,1111122 
COMPS,ioos:station:USF.COMPS:SHP:1,2014-04-01T20:30:00Z,30.0600,-84.2910,0.703,1111122 
COMPS,ioos:station:USF.COMPS:SHP:1,2014-04-01T20:36:00Z,30.0600,-84.2910,0.702,1111122 
COMPS,ioos:station:USF.COMPS:SHP:1,2014-04-01T20:42:00Z,30.0600,-84.2910,0.695,1111122 
COMPS,ioos:station:USF.COMPS:SHP:1,2014-04-01T20:48:00Z,30.0600,-84.2910,0.688,1111122 
COMPS,ioos:station:USF.COMPS:SHP:1,2014-04-01T20:54:00Z,30.0600,-84.2910,0.682,1111122 
COMPS,ioos:station:USF.COMPS:SHP:1,2014-04-01T21:00:00Z,30.0600,-84.2910,0.666,1111122 
COMPS,ioos:station:USF.COMPS:SHP:1,2014-04-01T21:06:00Z,30.0600,-84.2910,0.643,1111122 
COMPS,ioos:station:USF.COMPS:SHP:1,2014-04-01T21:12:00Z,30.0600,-84.2910,0.626,1111122 
COMPS,ioos:station:USF.COMPS:SHP:1,2014-04-01T21:18:00Z,30.0600,-84.2910,0.609,1111122 
COMPS,ioos:station:USF.COMPS:SHP:1,2014-04-01T21:24:00Z,30.0600,-84.2910,0.592,1111122 
COMPS,ioos:station:USF.COMPS:SHP:1,2014-04-01T21:30:00Z,30.0600,-84.2910,0.573,1111122 
COMPS,ioos:station:USF.COMPS:SHP:1,2014-04-01T21:36:00Z,30.0600,-84.2910,0.548,1111122 
COMPS,ioos:station:USF.COMPS:SHP:1,2014-04-01T21:42:00Z,30.0600,-84.2910,0.526,1111122 
COMPS,ioos:station:USF.COMPS:SHP:1,2014-04-01T21:48:00Z,30.0600,-84.2910,0.502,1111122 
COMPS,ioos:station:USF.COMPS:SHP:1,2014-04-01T21:54:00Z,30.0600,-84.2910,0.477,1111122 
COMPS,ioos:station:USF.COMPS:SHP:1,2014-04-01T22:00:00Z,30.0600,-84.2910,0.452,1111122 
COMPS,ioos:station:USF.COMPS:SHP:1,2014-04-01T22:06:00Z,30.0600,-84.2910,0.426,1111122 
COMPS,ioos:station:USF.COMPS:SHP:1,2014-04-01T22:12:00Z,30.0600,-84.2910,0.395,1111122 
COMPS,ioos:station:USF.COMPS:SHP:1,2014-04-01T22:18:00Z,30.0600,-84.2910,0.367,1111122 
COMPS,ioos:station:USF.COMPS:SHP:1,2014-04-01T22:24:00Z,30.0600,-84.2910,0.343,1111122 
COMPS,ioos:station:USF.COMPS:SHP:1,2014-04-01T22:30:00Z,30.0600,-84.2910,0.315,1111122 
COMPS,ioos:station:USF.COMPS:SHP:1,2014-04-01T22:36:00Z,30.0600,-84.2910,0.289,1111122 
COMPS,ioos:station:USF.COMPS:SHP:1,2014-04-01T22:42:00Z,30.0600,-84.2910,0.263,1111122 
COMPS,ioos:station:USF.COMPS:SHP:1,2014-04-01T22:48:00Z,30.0600,-84.2910,0.227,1111122 
COMPS,ioos:station:USF.COMPS:SHP:1,2014-04-01T22:54:00Z,30.0600,-84.2910,0.194,1111122 
COMPS,ioos:station:USF.COMPS:SHP:1,2014-04-01T23:00:00Z,30.0600,-84.2910,0.163,1111122 
COMPS,ioos:station:USF.COMPS:SHP:1,2014-04-01T23:06:00Z,30.0600,-84.2910,0.127,1111122 
COMPS,ioos:station:USF.COMPS:SHP:1,2014-04-01T23:12:00Z,30.0600,-84.2910,0.089,1111122 
COMPS,ioos:station:USF.COMPS:SHP:1,2014-04-01T23:18:00Z,30.0600,-84.2910,0.057,1111122 
COMPS,ioos:station:USF.COMPS:SHP:1,2014-04-01T23:24:00Z,30.0600,-84.2910,0.025,1111122 
COMPS,ioos:station:USF.COMPS:SHP:1,2014-04-01T23:30:00Z,30.0600,-84.2910,-0.01,1111122 
COMPS,ioos:station:USF.COMPS:SHP:1,2014-04-01T23:36:00Z,30.0600,-84.2910,-0.042,1111122 
COMPS,ioos:station:USF.COMPS:SHP:1,2014-04-01T23:42:00Z,30.0600,-84.2910,-0.072,1111122 
COMPS,ioos:station:USF.COMPS:SHP:1,2014-04-01T23:48:00Z,30.0600,-84.2910,-0.103,1111122 
COMPS,ioos:station:USF.COMPS:SHP:1,2014-04-01T23:54:00Z,30.0600,-84.2910,-0.136,1111122 
COMPS,ioos:station:USF.COMPS:SHP:1,2014-04-02T00:00:00Z,30.0600,-84.2910,-0.166,1111122 
COMPS,ioos:station:USF.COMPS:SHP:1,2014-04-02T00:06:00Z,30.0600,-84.2910,-0.194,1111122 
COMPS,ioos:station:USF.COMPS:SHP:1,2014-04-02T00:12:00Z,30.0600,-84.2910,-0.222,1111122 
COMPS,ioos:station:USF.COMPS:SHP:1,2014-04-02T00:18:00Z,30.0600,-84.2910,-0.251,1111122 
COMPS,ioos:station:USF.COMPS:SHP:1,2014-04-02T00:24:00Z,30.0600,-84.2910,-0.277,1111122 
COMPS,ioos:station:USF.COMPS:SHP:1,2014-04-02T00:30:00Z,30.0600,-84.2910,-0.303,1111122 
COMPS,ioos:station:USF.COMPS:SHP:1,2014-04-02T00:36:00Z,30.0600,-84.2910,-0.33,1111122 
COMPS,ioos:station:USF.COMPS:SHP:1,2014-04-02T00:42:00Z,30.0600,-84.2910,-0.358,1111122 
COMPS,ioos:station:USF.COMPS:SHP:1,2014-04-02T00:48:00Z,30.0600,-84.2910,-0.381,1111122 
COMPS,ioos:station:USF.COMPS:SHP:1,2014-04-02T00:54:00Z,30.0600,-84.2910,-0.403,1111122 
COMPS,ioos:station:USF.COMPS:SHP:1,2014-04-02T01:00:00Z,30.0600,-84.2910,-0.426,1111122 
COMPS,ioos:station:USF.COMPS:SHP:1,2014-04-02T01:06:00Z,30.0600,-84.2910,-0.45,1111122 
COMPS,ioos:station:USF.COMPS:SHP:1,2014-04-02T01:12:00Z,30.0600,-84.2910,-0.473,1111122 
COMPS,ioos:station:USF.COMPS:SHP:1,2014-04-02T01:18:00Z,30.0600,-84.2910,-0.493,1111122 
COMPS,ioos:station:USF.COMPS:SHP:1,2014-04-02T01:24:00Z,30.0600,-84.2910,-0.513,1111122 
COMPS,ioos:station:USF.COMPS:SHP:1,2014-04-02T01:30:00Z,30.0600,-84.2910,-0.533,1111122 
COMPS,ioos:station:USF.COMPS:SHP:1,2014-04-02T01:36:00Z,30.0600,-84.2910,-0.552,1111122 
COMPS,ioos:station:USF.COMPS:SHP:1,2014-04-02T01:42:00Z,30.0600,-84.2910,-0.57,1111122 
COMPS,ioos:station:USF.COMPS:SHP:1,2014-04-02T01:48:00Z,30.0600,-84.2910,-0.588,1111122 
COMPS,ioos:station:USF.COMPS:SHP:1,2014-04-02T01:54:00Z,30.0600,-84.2910,-0.605,1111122 
COMPS,ioos:station:USF.COMPS:SHP:1,2014-04-02T02:00:00Z,30.0600,-84.2910,-0.62,1111122 
COMPS,ioos:station:USF.COMPS:SHP:1,2014-04-02T02:06:00Z,30.0600,-84.2910,-0.635,1111122 
COMPS,ioos:station:USF.COMPS:SHP:1,2014-04-02T02:12:00Z,30.0600,-84.2910,-0.644,1111122 
COMPS,ioos:station:USF.COMPS:SHP:1,2014-04-02T02:18:00Z,30.0600,-84.2910,-0.627,1111122 
COMPS,ioos:station:USF.COMPS:SHP:1,2014-04-02T02:24:00Z,30.0600,-84.2910,-0.627,1111122 
COMPS,ioos:station:USF.COMPS:SHP:1,2014-04-02T02:30:00Z,30.0600,-84.2910,-0.627,1111122 
COMPS,ioos:station:USF.COMPS:SHP:1,2014-04-02T02:36:00Z,30.0600,-84.2910,-0.628,1111122 
COMPS,ioos:station:USF.COMPS:SHP:1,2014-04-02T02:42:00Z,30.0600,-84.2910,-0.628,1111122 
COMPS,ioos:station:USF.COMPS:SHP:1,2014-04-02T02:48:00Z,30.0600,-84.2910,-0.628,1111122 
COMPS,ioos:station:USF.COMPS:SHP:1,2014-04-02T02:54:00Z,30.0600,-84.2910,-0.628,1111122 